This is the latest recevied weather packets stored in our database for station/object KX4O-13. If no packets are shown the sender has not sent any weather packets the latest 10 day(s).
| Time | Temp. | Humidity | Pressure | Rain* | Wind** | Luminosity | Snow |
|---|---|---|---|---|---|---|---|
| 1777992653 | 23.89° C | 43% | 1012.1 hPa | 0 mm | - | 694 W/m² | - |
| 1777992353 | 23.89° C | 45% | 1012.1 hPa | 0 mm | - | 689 W/m² | - |
| 1777992053 | 23.33° C | 45% | 1012.1 hPa | 0 mm | - | 677 W/m² | - |
| 1777991753 | 23.89° C | 44% | 1012.1 hPa | 0 mm | - | 663 W/m² | - |
| 1777991455 | 23.89° C | 46% | 1012.1 hPa | 0 mm | - | 654 W/m² | - |
| 1777991153 | 23.33° C | 48% | 1012.1 hPa | 0 mm | - | 643 W/m² | - |
| 1777990853 | 22.78° C | 47% | 1012 hPa | 0 mm | - | 629 W/m² | - |
| 1777990553 | 22.78° C | 52% | 1012.1 hPa | 0 mm | - | 619 W/m² | - |
| 1777989953 | 22.22° C | 50% | 1012.2 hPa | 0 mm | - | 587 W/m² | - |
| 1777989653 | 21.67° C | 50% | 1012.3 hPa | 0 mm | - | 577 W/m² | - |
| 1777989353 | 21.67° C | 50% | 1012.3 hPa | 0 mm | - | 561 W/m² | - |
| 1777989055 | 21.11° C | 51% | 1012.2 hPa | 0 mm | - | 536 W/m² | - |
| 1777988753 | 21.11° C | 51% | 1012.3 hPa | 0 mm | - | 515 W/m² | - |
| 1777988453 | 20.56° C | 54% | 1012.3 hPa | 0 mm | - | 490 W/m² | - |
| 1777988153 | 20.56° C | 54% | 1012.4 hPa | 0 mm | - | 454 W/m² | - |
| 1777987853 | 20° C | 54% | 1012.3 hPa | 0 mm | - | 445 W/m² | - |
| 1777987553 | 20° C | 54% | 1012.3 hPa | 0 mm | - | 422 W/m² | - |
| 1777987253 | 20° C | 55% | 1012.3 hPa | 0 mm | - | 390 W/m² | - |
| 1777986953 | 19.44° C | 55% | 1012.2 hPa | 0 mm | - | 376 W/m² | - |
| 1777986655 | 19.44° C | 55% | 1012.2 hPa | 0 mm | - | 359 W/m² | - |
| 1777986353 | 18.89° C | 58% | 1012.3 hPa | 0 mm | - | 341 W/m² | - |
| 1777986053 | 18.33° C | 56% | 1012.4 hPa | 0 mm | - | 325 W/m² | - |
| 1777985753 | 18.89° C | 61% | 1012.5 hPa | 0 mm | - | 316 W/m² | - |
| 1777985453 | 18.33° C | 58% | 1012.4 hPa | 0 mm | - | 292 W/m² | - |
| 1777985153 | 17.78° C | 59% | 1012.4 hPa | 0 mm | - | 292 W/m² | - |
* Rain latest hour (hover to see other rain measurements)
** Current wind speed in m/s (hover to see current wind gust speed)